#timestamp,LO_Frequency,Hit,StdDev 
1641650415.1,286047003.5,N
1641650435.9,286047006.0,N
1641650455.7,286047004.2,N
1641650475.5,286047003.1,N
1641650495.4,286047003.7,N
1641650515.2,286047003.1,N
1641650535.0,286047003.6,N
1641650535.9,286047003.6,N
1641650555.8,286047005.9,Y
1641650575.6,286047002.1,P
1641650595.5,286047004.4,P
1641650615.3,286047001.6,N
1641650635.1,286047003.9,Y
1641650655.9,286046999.8,P
1641650675.7,286047000.9,N
1641650695.6,286047000.4,N
1641650715.4,286047000.3,N
1641650735.2,286047001.1,N
1641650755.1,286046998.2,N
1641650756.0,286046998.2,N
1641650775.8,286046998.3,N
1641650795.6,286046998.6,N
1641650815.5,286046998.6,N
1641650835.3,286046998.5,N
1641650855.2,286047000.2,N
1641650875.9,286047000.0,N
1641650895.7,286047002.6,N
1641650915.6,286047002.1,N
1641650935.4,286047002.1,N
1641650985.3,286047001.3,E
1641650995.2,286047001.5,N
1641651015.0,286047000.1,P
1641651015.9,286047000.1,N
1641651035.8,286047000.1,N
1641651055.6,286047001.5,N
1641651075.4,286046999.7,N
1641651095.3,286046999.8,N
1641651115.1,286047001.9,N
1641651135.9,286047002.3,N
1641651155.7,286047000.2,N
1641651175.5,286046999.9,N
1641651195.4,286046999.9,N
1641651215.2,286047000.1,N
1641651235.0,286047000.5,N
1641651235.9,286047000.5,N
1641651255.8,286047000.6,N
1641651275.6,286047000.3,N
1641651295.5,286046999.9,N
1641651315.3,286047002.8,Y
1641651335.1,286046999.8,P
1641651355.9,286047001.5,P
1641651375.7,286047000.4,N
1641651395.6,286047002.5,Y
1641651415.4,286047000.2,P
1641651435.2,286046999.9,N
1641651455.1,286046999.9,N
1641651456.0,286046999.9,N
1641651475.8,286047000.4,N
1641651495.6,286047002.8,Y
1641651515.5,286047002.8,P
1641651535.3,286047002.2,N
1641651555.2,286047001.8,N
1641651575.9,286047002.8,N
1641651595.7,286047002.8,N
1641651615.6,286047002.3,N
1641651635.4,286047002.3,N
1641651655.2,286047001.7,N
1641651675.1,286047001.9,N
1641651676.0,286047001.9,N
1641651695.8,286047002.8,Y
1641651715.7,286047001.1,P
1641651735.5,286046998.6,N
1641651755.3,286047000.9,N
1641651775.2,286047002.4,N
1641651795.0,286047002.1,N
1641651795.9,286047002.1,N
1641651815.8,286047000.5,N
1641651835.6,286047002.6,N
1641651855.4,286047002.7,N
1641651875.3,286047000.1,N
1641651895.1,286047001.9,N
1641651915.8,286047003.9,Y
1641651935.7,286046999.9,P
1641651955.5,286046998.5,N
1641651975.4,286046998.5,N
1641651995.2,286046998.1,N
1641652015.0,286047000.3,N
1641652015.9,286047000.3,N
1641652035.8,286047000.7,N
1641652055.6,286047000.4,N
1641652075.5,286047002.2,N
1641652095.3,286047002.8,N
1641652115.1,286046999.8,N
1641652135.9,286047002.1,N
1641652155.7,286046999.8,N
1641652175.6,286047001.0,N
1641652195.4,286047001.0,N
1641652215.2,286047000.5,N
1641652235.1,286047000.2,N
1641652236.0,286047000.2,N
1641652255.8,286047000.5,N
1641652275.7,286047002.3,N
1641652295.5,286047000.1,N
1641652315.3,286047000.6,N
1641652335.2,286047002.4,N
1641652355.0,286047001.8,N
1641652355.9,286047001.8,N
1641652375.8,286047001.7,N
1641652395.6,286047004.0,Y
1641652415.4,286047003.6,P
1641652435.3,286047001.7,N
1641652455.1,286047002.7,N
1641652475.8,286047002.8,N
1641652495.7,286047002.3,N
1641652515.5,286047001.7,N
1641652535.4,286047003.6,Y
1641652555.2,286046999.9,P
1641652575.0,286047000.2,N
1641652575.9,286047000.2,N
1641652595.8,286046999.8,N
1641652615.6,286047001.2,N
1641652635.5,286046998.1,N
1641652655.3,286046998.7,N
1641652675.1,286046998.8,N
1641652695.9,286046998.4,N
1641652715.7,286046998.6,N
1641652735.5,286046998.1,N
1641652755.4,286046998.8,N
1641652775.2,286046998.3,N
1641652795.1,286047001.1,N
1641652796.0,286047001.1,N
1641652815.8,286047001.1,N
1641652835.6,286046999.1,N
1641652855.5,286046998.5,N
1641652875.3,286046998.5,N
1641652895.1,286046998.4,N
1641652915.9,286047000.8,N
1641652935.7,286046999.3,N
1641652955.6,286046998.4,N
1641652975.4,286047001.0,N
1641652995.2,286047001.1,N
1641653015.1,286046998.2,N
1641653016.0,286046998.2,N
1641653035.8,286046998.9,N
1641653055.6,286047000.8,N
1641653075.5,286047000.9,N
1641653095.3,286046998.5,N
1641653115.2,286047000.7,N
1641653135.9,286046998.6,N
1641653155.7,286047000.7,N
1641653175.6,286047000.4,N
1641653195.4,286047001.1,N
1641653215.3,286047001.1,N
1641653265.1,286046999.4,E
1641653275.1,286047001.1,N
1641653276.0,286047001.1,P
1641653295.8,286047000.4,P
1641653315.6,286046998.6,Y
1641653335.5,286046998.6,P
1641653355.3,286046998.8,N
1641653375.1,286046999.1,N
1641653395.9,286046996.9,Y
1641653415.7,286046999.1,P
1641653435.6,286046998.4,P
1641653455.4,286047000.4,N
1641653475.2,286047000.8,N
1641653495.1,286047000.3,N
1641653496.0,286047000.3,N
1641653515.8,286046998.5,N
1641653535.7,286046999.3,N
1641653555.5,286046998.3,N
1641653575.3,286046998.6,N
1641653595.2,286047000.7,N
1641653615.0,286047001.2,N
1641653615.9,286047001.2,N
1641653635.8,286047002.8,N
1641653655.6,286047002.1,N
1641653675.4,286047002.8,N
1641653695.3,286047002.6,N
1641653715.1,286046999.9,N
1641653735.8,286047000.0,N
1641653755.7,286046998.4,N
1641653775.5,286046998.3,N
1641653795.4,286046999.0,N
1641653815.2,286046998.8,N
1641653835.0,286047001.2,N
1641653835.9,286047001.2,N
1641653855.8,286047001.2,N
1641653875.6,286047001.2,N
1641653895.4,286047000.1,N
1641653915.3,286047000.7,N
1641653935.1,286047001.0,N
1641653955.9,286047000.5,N
1641653975.7,286046999.7,N
1641653995.6,286047000.3,N
